Regional Weather Roundup
Issued by NWS Goodland, KS

Home | Current Version | Previous Version | Text Only | Print | Product List | Glossary Off
Versions: 1 2 3 4 5 6 7 8 9 10 11 12 13 14 15 16 17 18 19 20 21 22 23 24 25 26 27 28 29 30 31 32 33 34 35 36 37 38 39 40 41 42 43 44 45 46 47 48 49 50

000
ASUS43 KGLD 191608
RWRGLD

GOODLAND FORECAST AREA HOURLY WEATHER ROUNDUP
NATIONAL WEATHER SERVICE GOODLAND KS
1000 AM MDT SAT APR 19 2014

...OFFICIAL OBSERVATIONS...

CITY           SKY/WX    TMP DP  RH WIND       PRES   REMARKS
GOODLAND KS    MOSUNNY   64  45  49 N21       29.94R
HILL CITY KS   PTSUNNY   68  46  45 S18G26    29.92S
IMPERIAL NEB   PTSUNNY   59  45  59 N16G28    29.97R
MCCOOK NEB     MOSUNNY   61  48  62 NE9       29.93S
AKRON CO       MOSUNNY   54  41  61 NE13      30.03R
BURLINGTON CO  PTSUNNY   65  42  43 N22       30.00R
LIMON CO       CLOUDY    62  35  36 N18G26    30.04R
$$

...UNOFFICIAL OBSERVATIONS...

CITY           SKY/WX    TMP DP  RH WIND       PRES   REMARKS
COLBY KS       SUNNY     64  48  55 N10       29.93R
LENORA KS        N/A     65  32  29 S15         N/A
LEOTI KS         N/A     71  32  23 CALM        N/A
NORTON KS      SUNNY     63  46  55 S13G20    29.92S
OBERLIN KS     FAIR      61  46  59 NE3       29.91S
SHARON SPRINGS   N/A     68  45  42 NW13G20     N/A
ST FRANCIS KS  PTSUNNY   61  43  51 N17       29.96R
WAKEENEY KS      N/A     68  42  38 MISG        N/A
KIT CARSON CO    N/A     66  40  38 MISG        N/A
$$



USA.gov is the U.S. government's official web portal to all federal, state and local government web resources and services.